Time,TemperatureF,DewpointF,PressureIn,WindDirection,WindDirectionDegrees,WindSpeedMPH,WindSpeedGustMPH,Humidity,HourlyPrecipIn,Conditions,Clouds,dailyrainin,SolarRadiationWatts/m^2,SoftwareType,DateUTC
2013-03-19 00:02:00,29.0,23.0,-100.00,ENE,77,5.0,11.0,79,0.00,,,0.03,1.000000,,2013-03-19 06:02:00,
2013-03-19 00:12:00,29.0,23.0,-100.00,ENE,77,5.0,11.0,79,0.00,,,0.03,1.000000,,2013-03-19 06:12:00,
2013-03-19 00:42:00,30.0,20.0,-100.00,ESE,105,5.0,15.0,67,0.00,,,0.03,1.000000,,2013-03-19 06:42:00,
2013-03-19 00:52:00,30.0,20.0,-100.00,ESE,105,5.0,15.0,67,0.00,,,0.03,1.000000,,2013-03-19 06:52:00,
2013-03-19 01:02:00,30.0,20.0,-100.00,ESE,105,5.0,15.0,67,0.00,,,0.03,1.000000,,2013-03-19 07:02:00,
2013-03-19 01:12:00,30.0,20.0,-100.00,ESE,105,5.0,15.0,67,0.00,,,0.03,1.000000,,2013-03-19 07:12:00,
2013-03-19 01:42:00,28.0,25.0,-100.00,NE,40,4.0,11.0,88,0.01,,,0.04,1.000000,,2013-03-19 07:42:00,
2013-03-19 01:52:00,28.0,25.0,-100.00,NE,40,4.0,11.0,88,0.01,,,0.04,1.000000,,2013-03-19 07:52:00,
2013-03-19 02:02:00,28.0,25.0,-100.00,NE,40,4.0,11.0,88,0.01,,,0.04,1.000000,,2013-03-19 08:02:00,
2013-03-19 02:12:00,28.0,25.0,-100.00,NE,40,4.0,11.0,88,0.01,,,0.04,1.000000,,2013-03-19 08:12:00,
2013-03-19 02:33:00,28.0,22.0,-100.00,East,91,4.0,11.0,77,0.00,,,0.04,1.000000,,2013-03-19 08:33:00,
2013-03-19 02:43:00,28.0,22.0,-100.00,East,91,4.0,11.0,77,0.00,,,0.04,1.000000,,2013-03-19 08:43:00,
2013-03-19 02:52:00,28.0,22.0,-100.00,East,91,4.0,11.0,77,0.00,,,0.04,1.000000,,2013-03-19 08:52:00,
2013-03-19 03:02:00,28.0,22.0,-100.00,East,91,4.0,11.0,77,0.00,,,0.04,1.000000,,2013-03-19 09:02:00,
2013-03-19 03:12:00,28.0,22.0,-100.00,East,91,4.0,11.0,77,0.00,,,0.04,1.000000,,2013-03-19 09:12:00,
2013-03-19 03:43:00,27.0,19.0,-100.00,ESE,109,3.0,11.0,71,0.00,,,0.04,1.000000,,2013-03-19 09:43:00,
2013-03-19 03:53:00,27.0,19.0,-100.00,ESE,109,3.0,11.0,71,0.00,,,0.04,1.000000,,2013-03-19 09:53:00,
2013-03-19 04:03:00,27.0,19.0,-100.00,ESE,109,3.0,11.0,71,0.00,,,0.04,1.000000,,2013-03-19 10:03:00,
2013-03-19 04:12:00,27.0,19.0,-100.00,ESE,109,3.0,11.0,71,0.00,,,0.04,1.000000,,2013-03-19 10:12:00,
2013-03-19 04:33:00,27.0,21.0,-100.00,ESE,112,3.0,10.0,79,0.00,,,0.04,1.000000,,2013-03-19 10:33:00,
2013-03-19 04:42:00,27.0,21.0,-100.00,ESE,112,3.0,10.0,79,0.00,,,0.04,1.000000,,2013-03-19 10:42:00,
2013-03-19 04:53:00,27.0,21.0,-100.00,ESE,112,3.0,10.0,79,0.00,,,0.04,1.000000,,2013-03-19 10:53:00,
2013-03-19 05:02:00,27.0,21.0,-100.00,ESE,112,3.0,10.0,79,0.00,,,0.04,1.000000,,2013-03-19 11:02:00,
2013-03-19 05:11:00,27.0,21.0,-100.00,ESE,112,3.0,10.0,79,0.00,,,0.04,1.000000,,2013-03-19 11:11:00,
2013-03-19 05:33:00,26.0,19.0,-100.00,ESE,115,3.0,7.0,76,0.00,,,0.04,1.000000,,2013-03-19 11:33:00,
2013-03-19 05:43:00,26.0,19.0,-100.00,ESE,115,3.0,7.0,76,0.00,,,0.04,1.000000,,2013-03-19 11:43:00,
2013-03-19 05:52:00,26.0,19.0,-100.00,ESE,115,3.0,7.0,76,0.00,,,0.04,1.000000,,2013-03-19 11:52:00,
2013-03-19 06:02:00,26.0,19.0,-100.00,ESE,115,3.0,7.0,76,0.00,,,0.04,1.000000,,2013-03-19 12:02:00,
2013-03-19 06:12:00,26.0,19.0,-100.00,ESE,115,3.0,7.0,76,0.00,,,0.04,1.000000,,2013-03-19 12:12:00,
2013-03-19 07:33:00,23.0,19.0,-100.00,ESE,120,2.0,7.0,83,-99.99,,,-99.99,1.000000,,2013-03-19 13:33:00,
2013-03-19 07:42:00,23.0,19.0,-100.00,ESE,120,2.0,7.0,83,-99.99,,,-99.99,1.000000,,2013-03-19 13:42:00,
2013-03-19 07:52:00,23.0,19.0,-100.00,ESE,120,2.0,7.0,83,-99.99,,,-99.99,1.000000,,2013-03-19 13:52:00,
2013-03-19 08:02:00,23.0,19.0,-100.00,ESE,120,2.0,7.0,83,-99.99,,,-99.99,1.000000,,2013-03-19 14:02:00,
2013-03-19 08:12:00,23.0,19.0,-100.00,ESE,120,2.0,7.0,83,-99.99,,,-99.99,1.000000,,2013-03-19 14:12:00,
2013-03-19 08:42:00,20.0,16.0,-100.00,SE,132,2.0,4.0,86,0.00,,,-99.99,1.000000,,2013-03-19 14:42:00,
2013-03-19 08:52:00,20.0,16.0,-100.00,SE,132,2.0,4.0,86,0.00,,,-99.99,1.000000,,2013-03-19 14:52:00,
2013-03-19 09:02:00,20.0,16.0,-100.00,SE,132,2.0,4.0,86,0.00,,,-99.99,1.000000,,2013-03-19 15:02:00,
2013-03-19 09:12:00,20.0,16.0,-100.00,SE,132,2.0,4.0,86,0.00,,,-99.99,1.000000,,2013-03-19 15:12:00,
2013-03-19 09:44:00,19.0,16.0,-100.00,East,81,2.0,6.0,86,0.00,,,0.04,5.000000,,2013-03-19 15:44:00,
2013-03-19 09:53:00,19.0,16.0,-100.00,East,81,2.0,6.0,86,0.00,,,0.04,5.000000,,2013-03-19 15:53:00,
2013-03-19 10:03:00,19.0,16.0,-100.00,East,81,2.0,6.0,86,0.00,,,0.04,5.000000,,2013-03-19 16:03:00,
2013-03-19 10:12:00,19.0,16.0,-100.00,East,81,2.0,6.0,86,0.00,,,0.04,5.000000,,2013-03-19 16:12:00,
2013-03-19 10:44:00,22.0,17.0,-100.00,NNW,342,2.0,6.0,80,0.00,,,0.04,28.000000,,2013-03-19 16:44:00,
2013-03-19 11:44:00,29.0,16.0,-100.00,North,1,3.0,10.0,58,0.00,,,0.03,169.000000,,2013-03-19 17:44:00,
2013-03-19 11:53:00,29.0,16.0,-100.00,North,1,3.0,10.0,58,0.00,,,0.03,169.000000,,2013-03-19 17:53:00,
2013-03-19 12:02:00,29.0,16.0,-100.00,North,1,3.0,10.0,58,0.00,,,0.03,169.000000,,2013-03-19 18:02:00,
2013-03-19 12:13:00,29.0,16.0,-100.00,North,1,3.0,10.0,58,0.00,,,0.03,169.000000,,2013-03-19 18:13:00,
2013-03-19 12:43:00,35.0,16.0,-100.00,NW,315,4.0,8.0,45,0.00,,,0.01,462.000000,,2013-03-19 18:43:00,
2013-03-19 12:53:00,35.0,16.0,-100.00,NW,315,4.0,8.0,45,0.00,,,0.01,462.000000,,2013-03-19 18:53:00,
2013-03-19 13:02:00,35.0,16.0,-100.00,NW,315,4.0,8.0,45,0.00,,,0.01,462.000000,,2013-03-19 19:02:00,
2013-03-19 13:12:00,35.0,16.0,-100.00,NW,315,4.0,8.0,45,0.00,,,0.01,462.000000,,2013-03-19 19:12:00,
2013-03-19 13:33:00,39.0,11.0,-100.00,NNW,344,4.0,9.0,31,0.00,,,0.01,619.000000,,2013-03-19 19:33:00,
2013-03-19 13:43:00,39.0,11.0,-100.00,NNW,344,4.0,9.0,31,0.00,,,0.01,619.000000,,2013-03-19 19:43:00,
2013-03-19 13:53:00,39.0,11.0,-100.00,NNW,344,4.0,9.0,31,0.00,,,0.01,619.000000,,2013-03-19 19:53:00,
2013-03-19 14:02:00,39.0,11.0,-100.00,NNW,344,4.0,9.0,31,0.00,,,0.01,619.000000,,2013-03-19 20:02:00,
2013-03-19 14:11:00,39.0,11.0,-100.00,NNW,344,4.0,9.0,31,0.00,,,0.01,619.000000,,2013-03-19 20:11:00,
2013-03-19 14:43:00,43.0,13.0,-100.00,NNE,24,4.0,10.0,29,0.00,,,0.01,720.000000,,2013-03-19 20:43:00,
2013-03-19 14:53:00,43.0,13.0,-100.00,NNE,24,4.0,10.0,29,0.00,,,0.01,720.000000,,2013-03-19 20:53:00,
2013-03-19 15:02:00,43.0,13.0,-100.00,NNE,24,4.0,10.0,29,0.00,,,0.01,720.000000,,2013-03-19 21:02:00,
2013-03-19 15:11:00,43.0,13.0,-100.00,NNE,24,4.0,10.0,29,0.00,,,0.01,720.000000,,2013-03-19 21:11:00,
2013-03-19 15:43:00,45.0,16.0,-100.00,NE,35,4.0,10.0,31,0.00,,,0.01,724.000000,,2013-03-19 21:43:00,
2013-03-19 15:53:00,45.0,16.0,-100.00,NE,35,4.0,10.0,31,0.00,,,0.01,724.000000,,2013-03-19 21:53:00,
2013-03-19 16:03:00,45.0,16.0,-100.00,NE,35,4.0,10.0,31,0.00,,,0.01,724.000000,,2013-03-19 22:03:00,
2013-03-19 16:12:00,45.0,16.0,-100.00,NE,35,4.0,10.0,31,0.00,,,0.01,724.000000,,2013-03-19 22:12:00,
2013-03-19 16:34:00,47.0,10.0,-100.00,NE,50,3.0,9.0,22,0.00,,,0.01,652.000000,,2013-03-19 22:34:00,
2013-03-19 16:43:00,47.0,10.0,-100.00,NE,50,3.0,9.0,22,0.00,,,0.01,652.000000,,2013-03-19 22:43:00,
2013-03-19 16:53:00,47.0,10.0,-100.00,NE,50,3.0,9.0,22,0.00,,,0.01,652.000000,,2013-03-19 22:53:00,
2013-03-19 17:02:00,47.0,10.0,-100.00,NE,50,3.0,9.0,22,0.00,,,0.01,652.000000,,2013-03-19 23:02:00,
2013-03-19 17:12:00,47.0,10.0,-100.00,NE,50,3.0,9.0,22,0.00,,,0.01,652.000000,,2013-03-19 23:12:00,
2013-03-19 17:33:00,49.0,3.0,-100.00,East,93,4.0,7.0,15,0.00,,,0.01,632.000000,,2013-03-19 23:33:00,
2013-03-19 17:43:00,49.0,3.0,-100.00,East,93,4.0,7.0,15,0.00,,,0.01,632.000000,,2013-03-19 23:43:00,
2013-03-19 17:52:00,49.0,3.0,-100.00,East,93,4.0,7.0,15,0.00,,,0.01,632.000000,,2013-03-19 23:52:00,
2013-03-19 18:02:00,49.0,3.0,-100.00,East,93,4.0,7.0,15,0.00,,,0.01,632.000000,,2013-03-20 00:02:00,
2013-03-19 18:12:00,49.0,3.0,-100.00,East,93,4.0,7.0,15,0.00,,,0.01,632.000000,,2013-03-20 00:12:00,
2013-03-19 18:33:00,49.0,3.0,-100.00,ESE,120,3.0,8.0,15,0.00,,,-99.99,484.000000,,2013-03-20 00:33:00,
2013-03-19 18:42:00,49.0,3.0,-100.00,ESE,120,3.0,8.0,15,0.00,,,-99.99,484.000000,,2013-03-20 00:42:00,
2013-03-19 18:52:00,49.0,3.0,-100.00,ESE,120,3.0,8.0,15,0.00,,,-99.99,484.000000,,2013-03-20 00:52:00,
2013-03-19 19:02:00,49.0,3.0,-100.00,ESE,120,3.0,8.0,15,0.00,,,-99.99,484.000000,,2013-03-20 01:02:00,
2013-03-19 19:11:00,49.0,3.0,-100.00,ESE,120,3.0,8.0,15,0.00,,,-99.99,484.000000,,2013-03-20 01:11:00,
2013-03-19 19:32:00,48.0,20.0,-100.00,East,99,2.0,6.0,32,0.00,,,0.01,251.000000,,2013-03-20 01:32:00,
2013-03-19 19:43:00,48.0,20.0,-100.00,East,99,2.0,6.0,32,0.00,,,0.01,251.000000,,2013-03-20 01:43:00,
2013-03-19 19:52:00,48.0,20.0,-100.00,East,99,2.0,6.0,32,0.00,,,0.01,251.000000,,2013-03-20 01:52:00,
2013-03-19 20:02:00,48.0,20.0,-100.00,East,99,2.0,6.0,32,0.00,,,0.01,251.000000,,2013-03-20 02:02:00,
2013-03-19 20:11:00,48.0,20.0,-100.00,East,99,2.0,6.0,32,0.00,,,0.01,251.000000,,2013-03-20 02:11:00,
2013-03-19 20:32:00,37.0,21.0,-100.00,SE,131,2.0,5.0,52,0.00,,,0.01,71.000000,,2013-03-20 02:32:00,
2013-03-19 20:43:00,37.0,21.0,-100.00,SE,131,2.0,5.0,52,0.00,,,0.01,71.000000,,2013-03-20 02:43:00,
2013-03-19 20:53:00,37.0,21.0,-100.00,SE,131,2.0,5.0,52,0.00,,,0.01,71.000000,,2013-03-20 02:53:00,
2013-03-19 21:01:00,37.0,21.0,-100.00,SE,131,2.0,5.0,52,0.00,,,0.01,71.000000,,2013-03-20 03:01:00,
2013-03-19 21:12:00,37.0,21.0,-100.00,SE,131,2.0,5.0,52,0.00,,,0.01,71.000000,,2013-03-20 03:12:00,
2013-03-19 21:34:00,33.0,22.0,-100.00,SE,126,2.0,4.0,63,0.00,,,0.01,8.000000,,2013-03-20 03:34:00,
2013-03-19 21:43:00,33.0,22.0,-100.00,SE,126,2.0,4.0,63,0.00,,,0.01,8.000000,,2013-03-20 03:43:00,
2013-03-19 21:53:00,33.0,22.0,-100.00,SE,126,2.0,4.0,63,0.00,,,0.01,8.000000,,2013-03-20 03:53:00,
2013-03-19 22:02:00,33.0,22.0,-100.00,SE,126,2.0,4.0,63,0.00,,,0.01,8.000000,,2013-03-20 04:02:00,
2013-03-19 22:12:00,33.0,22.0,-100.00,SE,126,2.0,4.0,63,0.00,,,0.01,8.000000,,2013-03-20 04:12:00,
2013-03-19 22:32:00,31.0,22.0,-100.00,ESE,122,1.0,4.0,68,0.00,,,0.01,1.000000,,2013-03-20 04:32:00,
2013-03-19 22:43:00,31.0,22.0,-100.00,ESE,122,1.0,4.0,68,0.00,,,0.01,1.000000,,2013-03-20 04:43:00,
2013-03-19 22:52:00,31.0,22.0,-100.00,ESE,122,1.0,4.0,68,0.00,,,0.01,1.000000,,2013-03-20 04:52:00,
2013-03-19 23:02:00,31.0,22.0,-100.00,ESE,122,1.0,4.0,68,0.00,,,0.01,1.000000,,2013-03-20 05:02:00,
2013-03-19 23:12:00,31.0,22.0,-100.00,ESE,122,1.0,4.0,68,0.00,,,0.01,1.000000,,2013-03-20 05:12:00,
2013-03-19 23:33:00,31.0,23.0,-100.00,SW,221,1.0,4.0,73,0.00,,,0.01,1.000000,,2013-03-20 05:33:00,
2013-03-19 23:43:00,31.0,23.0,-100.00,SW,221,1.0,4.0,73,0.00,,,0.01,1.000000,,2013-03-20 05:43:00,
2013-03-19 23:53:00,31.0,23.0,-100.00,SW,221,1.0,4.0,73,0.00,,,0.01,1.000000,,2013-03-20 05:53:00,